[[{"header":{"parameterUnit":"m.s-1","parameterCategory":1,"la1":30.2991,"la2":30.254,"lo1":-89.0895,"lo2":-89.0444,"dy":0.0017,"dx":0.0017,"nx":28,"ny":28,"refTime":"2023-08-04T09:00:00:Z","depth":0,"parameterNumber":2,"parameterNumberName":"U-component_of_WINDS"},"data":[0,0,0,0,0,0,0,0,0,0,0,0,0,0,0,0,0,0,0,0,0,0,0,0,0,0,0,0,0,0,0,0,0,0,0,0,0,0,0,0,0,0,0,0,0,0,0,0,0,0,0,0,0,0,0,0,0,0,5.8403,5.8404,0,5.8548,5.855,5.8551,5.8472,5.8468,5.8464,5.846,5.861,5.8617,5.8625,0,0,0,0,0,0,0,0,0,0,0,0,0,5.8056,5.8063,5.8403,5.8405,5.8406,5.8548,5.855,5.8552,5.8472,5.8467,5.8463,5.8458,5.8607,5.8616,5.8625,0,0,0,0,0,0,0,0,0,0,0,0,0,5.8204,5.8065,5.8402,5.8384,5.8383,5.8548,5.855,5.8552,5.8473,5.8467,5.8461,5.8456,5.8604,5.8615,5.8627,5.8818,0,0,5.8662,5.8667,0,0,0,0,0,0,0,0,5.8196,5.8217,5.8385,5.8385,5.8385,5.8486,5.8482,5.8641,5.8475,5.8439,5.846,5.8453,5.8573,5.8587,5.8627,5.8825,5.8831,5.8663,5.867,5.8675,5.8678,0,0,0,0,0,0,0,5.8186,5.8211,5.846,5.8387,5.8388,5.8368,5.8382,5.8512,5.8538,5.8442,5.8436,5.8455,5.8572,5.8616,5.863,5.8833,5.8663,5.8673,5.868,5.8685,5.9193,5.9199,0,0,0,0,0,0,5.8177,5.8202,5.8456,5.8465,5.8274,5.8379,5.8395,5.8459,5.8536,5.8542,5.846,5.845,5.86,5.8617,5.8635,5.8862,5.8675,5.8686,5.8692,5.9186,5.9194,5.9201,0,0,0,0,0,0,5.817,5.82,5.845,5.8332,5.8362,5.8391,5.8464,5.8465,5.8509,5.855,5.8554,5.85,5.8596,5.8619,5.8772,5.8867,5.8691,5.8701,5.9179,5.9189,5.9198,5.932,0,0,0,0,0,0,5.816,5.8198,5.8271,5.8334,5.8369,5.8585,5.847,5.8473,5.853,5.8519,5.8589,5.8595,5.8593,5.8756,5.8784,5.8879,5.871,5.917,5.9183,5.9195,5.9307,5.9332,5.9354,0,0,0,0,0,5.8148,5.83,5.8275,5.8306,5.8461,5.8591,5.861,5.8605,5.8538,5.8611,5.8637,5.8592,5.8852,5.8772,5.8803,5.8904,5.9164,5.9179,5.9194,5.9297,5.9327,5.9353,0,0,0,0,0,0,5.8248,5.8308,5.8281,5.8459,5.852,5.8577,5.8669,5.8638,5.872,5.8706,5.8696,5.8713,5.8872,5.8903,5.8813,5.9092,5.8998,5.9019,5.9065,5.9095,5.9118,5.9106,5.872,0,0,0,0,0,5.8291,5.8391,5.8438,5.859,5.8622,5.8641,5.8697,5.8687,5.8751,5.8776,5.8813,5.8877,5.8972,5.9035,5.9125,5.9312,5.9325,5.9396,5.9419,5.9438,5.9457,5.9556,5.9587,5.925,5.925,5.9249,0,0,5.838,5.8425,5.8489,5.8611,5.8658,5.8761,5.8663,5.8777,5.8854,5.8794,5.894,5.897,5.904,5.921,5.9287,5.9241,5.9553,5.9457,5.9472,5.948,5.9574,5.9606,5.9634,5.926,5.9258,5.9256,0,0,5.8595,5.864,5.877,5.8819,5.889,5.8901,5.8933,5.8995,5.9011,5.9158,5.9115,5.9206,5.9371,5.9422,5.947,5.9703,5.9665,5.9733,5.9854,5.9951,5.9977,6.0,6.0082,6.0112,5.9751,5.9752,5.9752,0,5.8697,5.8851,5.8842,5.8959,5.9013,5.8963,5.9095,5.9142,5.924,5.9278,5.9225,5.943,5.9474,5.9655,5.9711,5.9752,5.9787,5.9724,5.9974,5.9997,6.0019,6.0097,6.0128,5.9759,5.9758,5.9758,5.9757,0,5.8972,5.908,5.9177,5.9271,5.9336,5.9461,5.947,5.9537,5.9521,5.9538,5.9687,5.9738,5.9837,5.9879,5.9866,6.0058,6.0027,5.9975,5.988,6.0059,6.0132,6.0162,5.977,5.9767,5.9765,5.9763,0,0,5.9255,5.9341,5.9377,5.9418,5.9493,5.9576,5.9697,5.9793,5.985,5.9919,6.002,6.016,6.0112,6.0166,6.0157,6.0243,6.0422,6.0179,6.0181,6.0221,6.0635,6.0672,6.0707,6.0397,6.0403,6.0408,6.0628,0,5.9473,5.9685,5.9679,5.9876,5.9974,5.9928,6.0033,6.009,6.0109,6.0195,6.0215,6.0314,6.0244,6.0276,6.0358,6.0383,6.0504,6.0367,6.049,6.0494,6.0472,6.0745,6.0786,6.0991,6.0657,6.0661,6.0665,0,5.9757,5.9834,6.004,6.0098,6.014,6.0235,6.0321,6.0404,6.0467,6.0475,6.0535,6.0513,6.0635,6.0537,6.0705,6.0611,6.0661,6.0681,6.0689,6.0699,6.059,6.0761,6.1057,6.1087,6.071,6.0706,6.0703,0,5.994,6.0096,6.0239,6.0276,6.0348,6.0415,6.0449,6.0506,6.0563,6.0639,6.0676,6.0766,6.0815,6.0884,6.0886,6.0815,6.1055,6.0958,6.1064,6.1064,6.1116,6.1112,6.1422,6.1151,6.115,6.115,6.1149,0,6.0184,6.0312,6.0322,6.041,6.0551,6.0543,6.0683,6.071,6.0761,6.0852,6.0818,6.0905,6.0903,6.0991,6.0994,6.1131,6.1154,6.1163,6.1162,6.1165,6.1164,6.1197,6.1182,6.1158,6.1156,6.1154,6.1153,0,6.0413,6.0425,6.0577,6.0632,6.0649,6.0751,6.0798,6.0881,6.0896,6.1012,6.1039,6.1063,6.1165,6.1174,6.1293,6.1294,6.146,6.1444,6.1438,6.1435,6.1539,6.1529,6.188,6.1925,6.1626,6.1629,6.1631,0,6.0567,6.0664,6.0729,6.0788,6.0824,6.092,6.0978,6.0974,6.1036,6.1114,6.1188,6.1286,6.1364,6.1529,6.1557,6.1647,6.1632,6.1749,6.1645,6.1645,6.1631,6.1625,6.1634,6.1769,6.1772,6.1775,6.1777,0,6.0839,6.084,6.0925,6.1012,6.1082,6.1151,6.1214,6.1264,6.1268,6.1339,6.1443,6.1503,6.1623,6.1721,6.1809,6.1842,6.1811,6.1809,6.1838,6.1842,6.1833,6.1837,6.1491,6.1801,6.1799,6.1797,6.1795,6.1794,6.1034,6.1117,6.1176,6.1271,6.1318,6.1379,6.1459,6.1483,6.1569,6.1666,6.1659,6.1773,6.1832,6.1946,6.1987,6.2075,6.2036,6.2078,6.2089,6.2099,6.2108,6.1821,6.2092,6.2091,6.209,6.209,6.2089,0,6.1303,6.1338,6.1426,6.1515,6.159,6.1553,6.1622,6.1686,6.1787,6.1845,6.1922,6.204,6.2134,6.2169,6.226,6.2324,6.2311,6.2348,6.2342,6.235,6.214,6.2104,6.2357,6.2357,6.2356,6.2356,6.2356,6.2356,6.1451,6.1589,6.1597,6.1757,6.1791,6.1902,6.1944,6.1999,6.2045,6.2178,6.2255,6.2277,6.2325,6.242,6.2504,6.2512,6.2546,6.2589,6.259,6.2392,6.2365,6.234,6.2307,6.2597,6.2597,6.2793,6.2795,6.2796]},{"header":{"parameterUnit":"m.s-1","parameterCategory":1,"la1":30.2991,"la2":30.254,"lo1":-89.0895,"lo2":-89.0444,"dy":0.0017,"dx":0.0017,"nx":28,"ny":28,"refTime":"2023-08-04T09:00:00:Z","depth":0,"parameterNumber":3,"parameterNumberName":"V-component_of_WINDS"},"data":[0,0,0,0,0,0,0,0,0,0,0,0,0,0,0,0,0,0,0,0,0,0,0,0,0,0,0,0,0,0,0,0,0,0,0,0,0,0,0,0,0,0,0,0,0,0,0,0,0,0,0,0,0,0,0,0,0,0,0.5222,0.5222,0,0.5218,0.5218,0.5218,0.519,0.5189,0.5189,0.5188,0.5186,0.5186,0.5187,0,0,0,0,0,0,0,0,0,0,0,0,0,0.5208,0.5209,0.5222,0.5222,0.5222,0.5218,0.5218,0.5218,0.519,0.5189,0.5188,0.5188,0.5185,0.5186,0.5187,0,0,0,0,0,0,0,0,0,0,0,0,0,0.521,0.5209,0.5222,0.5208,0.5206,0.5218,0.5218,0.5218,0.519,0.5189,0.5188,0.5187,0.5185,0.5186,0.5187,0.5213,0,0,0.5189,0.519,0,0,0,0,0,0,0,0,0.521,0.5211,0.521,0.5209,0.5207,0.5203,0.5212,0.5216,0.519,0.5196,0.5188,0.5187,0.5192,0.5193,0.5194,0.5213,0.5212,0.519,0.519,0.519,0.5191,0,0,0,0,0,0,0,0.521,0.5211,0.5221,0.521,0.5208,0.5202,0.5201,0.5213,0.52,0.5196,0.5194,0.5194,0.5192,0.5193,0.5194,0.5212,0.519,0.519,0.5191,0.5191,0.5251,0.5252,0,0,0,0,0,0,0.5212,0.5211,0.5221,0.5221,0.5206,0.5203,0.5202,0.5206,0.52,0.5198,0.5194,0.5192,0.5192,0.5193,0.5194,0.5223,0.519,0.5191,0.5192,0.525,0.5251,0.5252,0,0,0,0,0,0,0.5211,0.5213,0.5221,0.5215,0.5216,0.5204,0.5209,0.5206,0.5208,0.5199,0.5197,0.5198,0.5192,0.5192,0.5208,0.5223,0.5192,0.5192,0.5249,0.525,0.5252,0.5283,0,0,0,0,0,0,0.5211,0.5213,0.5222,0.5215,0.5216,0.5235,0.521,0.5207,0.5209,0.5206,0.5202,0.5201,0.5191,0.5207,0.5209,0.5223,0.5193,0.5247,0.5249,0.5251,0.5281,0.5285,0.5289,0,0,0,0,0,0.5211,0.5232,0.5223,0.5224,0.5228,0.5236,0.5236,0.5224,0.5211,0.522,0.5214,0.5201,0.5221,0.5208,0.5211,0.5226,0.5246,0.5249,0.5251,0.5278,0.5284,0.5289,0,0,0,0,0,0,0.5242,0.5231,0.5221,0.524,0.5239,0.5231,0.5243,0.5231,0.5234,0.5231,0.5217,0.5216,0.5234,0.5231,0.5218,0.525,0.5231,0.5234,0.5251,0.5257,0.5261,0.5262,0.5194,0,0,0,0,0,0.5251,0.5258,0.5248,0.5266,0.5266,0.5255,0.5258,0.5248,0.5247,0.5247,0.5242,0.5241,0.5247,0.5252,0.5257,0.528,0.5278,0.5291,0.5296,0.5299,0.5302,0.5314,0.5319,0.526,0.526,0.526,0,0,0.527,0.5265,0.5271,0.5273,0.5271,0.5279,0.5255,0.5264,0.527,0.5248,0.5262,0.5259,0.5257,0.5276,0.5284,0.5275,0.5318,0.5302,0.5305,0.5306,0.5317,0.5322,0.5327,0.5262,0.5262,0.5261,0,0,0.5309,0.5306,0.532,0.5318,0.5315,0.5307,0.531,0.5304,0.53,0.5314,0.5297,0.5304,0.5315,0.5315,0.5316,0.5353,0.5341,0.5355,0.5379,0.539,0.5395,0.5399,0.5412,0.5417,0.5358,0.5358,0.5358,0,0.5334,0.5344,0.533,0.534,0.5341,0.532,0.5335,0.5334,0.5333,0.5335,0.5324,0.5336,0.5334,0.5352,0.5361,0.5362,0.5366,0.5356,0.5395,0.5399,0.5403,0.5415,0.542,0.536,0.5359,0.5359,0.5359,0,0.5375,0.5382,0.5394,0.5393,0.5395,0.5408,0.5395,0.54,0.539,0.5383,0.5397,0.5393,0.5396,0.54,0.5391,0.5417,0.5411,0.5398,0.5378,0.541,0.5422,0.5426,0.5362,0.5362,0.5361,0.5361,0,0,0.5434,0.5423,0.5428,0.5427,0.5421,0.5427,0.5438,0.5441,0.5445,0.5445,0.5454,0.5463,0.545,0.5452,0.5442,0.5452,0.5481,0.5437,0.5437,0.5446,0.551,0.552,0.5526,0.5472,0.5473,0.5474,0.551,0,0.5472,0.549,0.5476,0.5497,0.5504,0.5484,0.5494,0.5491,0.5485,0.549,0.5483,0.549,0.5473,0.5473,0.5482,0.5476,0.5494,0.5473,0.5482,0.5482,0.5483,0.5532,0.5543,0.5577,0.5514,0.5515,0.5515,0,0.5518,0.5519,0.554,0.5532,0.5534,0.5543,0.5544,0.5549,0.5546,0.5541,0.5541,0.5529,0.554,0.552,0.5535,0.5521,0.5523,0.5521,0.5522,0.5523,0.5501,0.5534,0.5587,0.5592,0.5522,0.5522,0.5521,0,0.556,0.5566,0.5579,0.5578,0.5569,0.5576,0.5573,0.5568,0.5571,0.5571,0.5573,0.5575,0.5577,0.5579,0.5567,0.5554,0.5584,0.5563,0.558,0.558,0.5588,0.5587,0.5642,0.5589,0.5589,0.5588,0.5588,0,0.5603,0.5617,0.5597,0.5606,0.5621,0.5605,0.562,0.5614,0.561,0.5618,0.56,0.5607,0.5591,0.5597,0.5588,0.5601,0.5602,0.5598,0.5596,0.56,0.5601,0.5602,0.56,0.559,0.5589,0.5589,0.5589,0,0.5652,0.564,0.5653,0.5643,0.564,0.5652,0.5643,0.5651,0.5642,0.5652,0.5653,0.564,0.5646,0.5634,0.5638,0.5632,0.5651,0.5645,0.5652,0.5651,0.5668,0.5667,0.5726,0.5733,0.5675,0.5675,0.5676,0,0.5681,0.5691,0.5681,0.5684,0.5682,0.5687,0.5689,0.5673,0.5676,0.5672,0.568,0.5684,0.5686,0.5696,0.5687,0.569,0.5684,0.5705,0.5685,0.5688,0.5685,0.5684,0.5685,0.5709,0.571,0.571,0.5711,0,0.5734,0.5726,0.5729,0.5729,0.5732,0.5731,0.573,0.5734,0.5717,0.5721,0.5725,0.5727,0.5731,0.5735,0.5735,0.5732,0.5719,0.5717,0.5721,0.5726,0.573,0.5728,0.5664,0.5716,0.5716,0.5715,0.5715,0.5715,0.5774,0.5781,0.5775,0.5779,0.5776,0.5774,0.5781,0.5773,0.5776,0.5777,0.5768,0.5775,0.577,0.577,0.5768,0.5773,0.5764,0.577,0.5772,0.5773,0.5776,0.5728,0.5774,0.5773,0.5773,0.5773,0.5773,0,0.5825,0.582,0.5823,0.5821,0.5824,0.5809,0.5807,0.581,0.5816,0.5813,0.5815,0.582,0.5824,0.5815,0.5818,0.5823,0.5817,0.5825,0.5824,0.5824,0.5784,0.5781,0.5829,0.5829,0.5829,0.5829,0.5829,0.5829,0.5852,0.5864,0.5856,0.5867,0.5861,0.5867,0.5867,0.5866,0.5863,0.5869,0.5872,0.5866,0.586,0.5862,0.5865,0.5862,0.5864,0.5873,0.5869,0.5832,0.5827,0.5821,0.5818,0.5874,0.5874,0.5908,0.5908,0.5908]}]]